Newburgh, NY

7:22 AM EDT on September 25, 2016 (GMT -0400)
Stewart International

Weather History for KSWF - February, 2014

Change the Weather History Date:

Saturday, February 15, 2014

  Actual Average Record
Temperature  
Mean Temperature 29 °F -  
Max Temperature 37 °F 36 °F 37 °F (2014)
Min Temperature 21 °F 19 °F 0 °F (2015)
Degree Days  
Heating Degree Days 36    
Moisture  
Dew Point 23 °F    
Average Humidity 82    
Maximum Humidity 100    
Minimum Humidity 56    
Precipitation  
Precipitation 0.00 in - - ()
Sea Level Pressure  
Sea Level Pressure 29.73 in    
Wind  
Wind Speed 4 mph (NNE)    
Max Wind Speed 18 mph    
Max Gust Speed 23 mph    
Visibility 7 miles    
Events Snow    
Averages and records for this station are not official NWS values.
T = Trace of Precipitation, MM = Missing Value Source: NWS Daily Summary

Daily Weather History Graph

Daily Weather History Graph

Search for Another Location

Airport or City:

Trip Planner

Search our weather history database for the weather conditions in past years. The results will help you decide how hot, cold, wet, or windy it might be!

Date:

Astronomy

Feb. 15, 2014 Rise Set
Actual Time 6:51 AM EST 5:30 PM EST
Civil Twilight 6:23 AM EST 5:58 PM EST
Nautical Twilight 5:50 AM EST 6:30 PM EST
Astronomical Twilight 5:18 AM EST 7:03 PM EST
Moon 6:28 PM EST (2/15) 6:48 AM EST (2/15)
Length of Visible Light 11h 35m
Length of Day
10h 38m
Full, 100% of the Moon is Illuminated
Feb 15
Full
Feb 22
Last Quarter
Mar 1
New
Mar 8
First Quarter
Mar 16
Full

Hourly Weather History & Observations

Time (EST) Temp. Windchill Dew Point Humidity Pressure Visibility Wind Dir Wind Speed Gust Speed Precip Events Conditions
12:45 AM 26.6 °F - 21.2 °F 80% 29.77 in 10.0 mi Calm Calm - N/A   Overcast
1:45 AM 21.2 °F - 17.6 °F 86% 29.77 in 10.0 mi Calm Calm - N/A   Mostly Cloudy
2:45 AM 21.2 °F - 17.6 °F 86% 29.77 in 10.0 mi Calm Calm - N/A   Mostly Cloudy
4:45 AM 24.8 °F - 21.2 °F 86% 29.76 in 10.0 mi Calm Calm - N/A   Mostly Cloudy
5:45 AM 24.8 °F - 21.2 °F 86% 29.75 in 10.0 mi Calm Calm - N/A   Mostly Cloudy
6:45 AM 37.4 °F - 23.0 °F 56% 29.77 in 10.0 mi Calm Calm - N/A   Overcast
7:45 AM 26.6 °F - 23.0 °F 86% 29.77 in 10.0 mi Calm Calm - N/A   Overcast
8:45 AM 28.4 °F - 24.8 °F 86% 29.77 in 10.0 mi Calm Calm - N/A   Overcast
9:45 AM 30.2 °F 21.9 °F 24.8 °F 80% 29.76 in 10.0 mi East 9.2 mph - N/A   Overcast
10:50 AM 32.0 °F 24.2 °F 23.0 °F 69% 29.76 in 10.0 mi East 9.2 mph - N/A   Overcast
11:45 AM 32.0 °F 24.2 °F 23.0 °F 69% 29.73 in 3.0 mi East 9.2 mph - N/A Snow Light Snow
12:45 PM 30.2 °F 20.8 °F 26.6 °F 86% 29.70 in 1.0 mi NNE 11.5 mph - N/A Snow Snow
1:50 PM 28.4 °F 18.5 °F 28.4 °F 100% 29.67 in 1.0 mi North 11.5 mph - N/A Snow Snow
2:55 PM 30.2 °F 19.8 °F 28.4 °F 93% 29.67 in 1.5 mi North 13.8 mph - N/A Snow Light Snow
3:50 PM 30.2 °F 19.8 °F 28.4 °F 93% 29.66 in 2.0 mi NNE 13.8 mph - N/A Snow Light Snow
4:45 PM 30.2 °F 19.8 °F 26.6 °F 86% 29.65 in 1.5 mi NNE 13.8 mph 23.0 mph N/A Snow Snow
6:45 PM 30.2 °F 23.4 °F 28.4 °F 93% 29.69 in 2.0 mi North 6.9 mph - N/A Snow Light Snow
8:45 PM 30.2 °F 22.6 °F 26.6 °F 86% 29.67 in 10.0 mi NW 8.1 mph - N/A   Overcast
10:45 PM 24.8 °F 11.9 °F 15.8 °F 69% 29.70 in 10.0 mi WNW 16.1 mph - N/A   Mostly Cloudy
11:45 PM 24.8 °F 11.1 °F 15.8 °F 69% 29.72 in 10.0 mi WNW 18.4 mph - N/A   Scattered Clouds